Location: La Bastide
(43.1661°N, 1.2755°E)
Time: 14:14:47
(UTC+00:00)

BlueWalker 3 - Pass Details

Date: 25 February 2026
Orbit: 451 x 458 km, 53.2° (Epoch: 6 March)

Event Time Altitude Azimuth Distance (km) Brightness Sun altitude
Exits shadow 04:39:49 18° 166° (SSE) 1,194 3.9 -22.2°
Maximum altitude 04:41:15 23° 132° (SE) 1,026 3.9 -22.0°
Drops below altitude 10° 04:44:08 10° 79° (E) 1,597 5.7 -21.5°
Sets 04:46:33 0° 64° (ENE) 2,473 6.7 -21.0°
